TimeCST,TemperatureF,Dew PointF,Humidity,Sea Level PressureIn,VisibilityMPH,Wind Direction,Wind SpeedMPH,Gust SpeedMPH,PrecipitationIn,Events,Conditions,WindDirDegrees,DateUTC
12:15 AM,39.2,35.6,87,29.70,0.5,SW,3.5,-,N/A,Fog,Fog,220,2013-01-11 06:15:00
12:35 AM,41.0,35.6,81,29.70,0.8,Calm,Calm,-,N/A,,Haze,0,2013-01-11 06:35:00
12:55 AM,41.0,35.6,81,29.70,0.8,Calm,Calm,-,N/A,,Haze,0,2013-01-11 06:55:00
1:15 AM,39.2,35.6,87,29.69,0.5,Calm,Calm,-,N/A,Fog,Fog,0,2013-01-11 07:15:00
1:35 AM,39.2,35.6,87,29.69,0.5,Calm,Calm,-,N/A,Fog,Fog,0,2013-01-11 07:35:00
1:55 AM,41.0,35.6,81,29.69,0.5,South,3.5,-,N/A,,Haze,180,2013-01-11 07:55:00
2:15 AM,41.0,35.6,81,29.66,0.5,SSE,3.5,-,N/A,,Haze,150,2013-01-11 08:15:00
2:35 AM,41.0,37.4,87,29.66,0.8,Calm,Calm,-,N/A,,Overcast,0,2013-01-11 08:35:00
2:55 AM,41.0,37.4,87,29.66,0.8,SSE,3.5,-,N/A,,Overcast,160,2013-01-11 08:55:00
3:15 AM,41.0,37.4,87,29.65,0.2,SSE,5.8,-,N/A,Fog,Fog,150,2013-01-11 09:15:00
3:35 AM,41.0,37.4,87,29.65,0.2,SSE,5.8,-,N/A,Fog,Fog,160,2013-01-11 09:35:00
3:55 AM,41.0,35.6,81,29.64,0.2,SSE,5.8,-,N/A,,Haze,160,2013-01-11 09:55:00
4:15 AM,41.0,35.6,81,29.63,0.2,South,5.8,-,N/A,,Haze,170,2013-01-11 10:15:00
4:35 AM,41.0,35.6,81,29.63,0.2,SSE,9.2,-,N/A,,Haze,160,2013-01-11 10:35:00
4:55 AM,41.0,35.6,81,29.62,0.5,South,9.2,-,N/A,,Haze,170,2013-01-11 10:55:00
5:15 AM,41.0,37.4,87,29.62,0.2,South,8.1,-,N/A,Fog,Fog,180,2013-01-11 11:15:00
5:35 AM,42.8,37.4,81,29.61,0.2,South,8.1,-,N/A,,Overcast,180,2013-01-11 11:35:00
5:55 AM,42.8,37.4,81,29.61,0.5,South,10.4,-,N/A,,Haze,170,2013-01-11 11:55:00
6:15 AM,42.8,39.2,87,29.60,0.8,South,10.4,-,0.01,,Overcast,170,2013-01-11 12:15:00
6:35 AM,44.6,39.2,81,29.60,1.2,South,8.1,-,0.01,,Haze,170,2013-01-11 12:35:00
6:55 AM,44.6,39.2,81,29.59,2.5,South,8.1,-,0.01,,Overcast,170,2013-01-11 12:55:00
7:15 AM,44.6,39.2,81,29.58,3.0,SSE,8.1,-,N/A,,Haze,150,2013-01-11 13:15:00
7:35 AM,44.6,41.0,87,29.59,4.0,SSE,9.2,-,N/A,,Overcast,160,2013-01-11 13:35:00
7:55 AM,46.4,41.0,81,29.58,5.0,SSE,9.2,-,N/A,,Haze,160,2013-01-11 13:55:00
8:15 AM,46.4,42.8,87,29.57,7.0,SSE,10.4,-,N/A,,Overcast,160,2013-01-11 14:15:00
8:35 AM,46.4,42.8,87,29.57,7.0,SSE,11.5,-,N/A,,Overcast,160,2013-01-11 14:35:00
8:55 AM,48.2,42.8,82,29.56,7.0,South,13.8,19.6,N/A,,Overcast,170,2013-01-11 14:55:00
9:35 AM,48.2,44.6,87,29.55,7.0,South,12.7,18.4,N/A,,Overcast,170,2013-01-11 15:35:00
9:55 AM,50.0,44.6,82,29.54,10.0,South,17.3,-,N/A,,Overcast,170,2013-01-11 15:55:00
10:15 AM,50.0,44.6,82,29.54,10.0,South,17.3,26.5,N/A,,Overcast,180,2013-01-11 16:15:00
10:35 AM,50.0,46.4,87,29.53,10.0,South,16.1,20.7,N/A,,Overcast,180,2013-01-11 16:35:00
10:55 AM,51.8,46.4,82,29.52,10.0,South,16.1,23.0,N/A,,Overcast,180,2013-01-11 16:55:00
11:15 AM,51.8,46.4,82,29.49,10.0,South,21.9,27.6,N/A,,Mostly Cloudy,170,2013-01-11 17:15:00
11:35 AM,53.6,46.4,77,29.49,10.0,South,23.0,29.9,N/A,,Mostly Cloudy,180,2013-01-11 17:35:00
11:55 AM,53.6,46.4,77,29.47,10.0,South,21.9,28.8,N/A,,Mostly Cloudy,180,2013-01-11 17:55:00
12:15 PM,53.6,46.4,77,29.47,10.0,South,17.3,26.5,N/A,,Mostly Cloudy,180,2013-01-11 18:15:00
12:35 PM,51.8,46.4,82,29.46,10.0,South,19.6,26.5,N/A,,Scattered Clouds,180,2013-01-11 18:35:00
12:55 PM,53.6,46.4,77,29.45,10.0,South,20.7,28.8,N/A,,Clear,180,2013-01-11 18:55:00
1:15 PM,53.6,46.4,77,29.44,10.0,South,19.6,-,N/A,,Clear,180,2013-01-11 19:15:00
1:35 PM,53.6,46.4,77,29.44,10.0,South,18.4,23.0,N/A,,Clear,180,2013-01-11 19:35:00
2:15 PM,55.4,46.4,72,29.42,10.0,South,19.6,25.3,N/A,,Clear,180,2013-01-11 20:15:00
2:35 PM,57.2,48.2,72,29.43,10.0,South,20.7,26.5,N/A,,Clear,180,2013-01-11 20:35:00
2:55 PM,57.2,46.4,67,29.43,10.0,South,23.0,27.6,N/A,,Clear,190,2013-01-11 20:55:00
3:15 PM,57.2,46.4,67,29.43,10.0,South,21.9,28.8,N/A,,Clear,180,2013-01-11 21:15:00
3:35 PM,55.4,46.4,72,29.43,10.0,South,23.0,27.6,N/A,,Clear,180,2013-01-11 21:35:00
3:55 PM,55.4,46.4,72,29.43,10.0,South,21.9,31.1,N/A,,Clear,180,2013-01-11 21:55:00
4:15 PM,55.4,44.6,67,29.43,10.0,South,18.4,26.5,N/A,,Clear,180,2013-01-11 22:15:00
4:35 PM,53.6,46.4,77,29.43,10.0,South,17.3,25.3,N/A,,Clear,180,2013-01-11 22:35:00
4:55 PM,53.6,44.6,72,29.42,10.0,South,18.4,-,N/A,,Clear,180,2013-01-11 22:55:00
5:15 PM,53.6,44.6,72,29.43,10.0,South,16.1,23.0,N/A,,Clear,180,2013-01-11 23:15:00
5:35 PM,53.6,44.6,72,29.44,10.0,South,17.3,25.3,N/A,,Scattered Clouds,190,2013-01-11 23:35:00
5:55 PM,53.6,44.6,72,29.45,10.0,South,20.7,25.3,N/A,,Scattered Clouds,180,2013-01-11 23:55:00
6:15 PM,53.6,44.6,72,29.44,10.0,South,17.3,25.3,N/A,,Scattered Clouds,180,2013-01-12 00:15:00
6:35 PM,53.6,44.6,72,29.45,10.0,South,21.9,29.9,N/A,,Clear,180,2013-01-12 00:35:00
6:55 PM,53.6,46.4,77,29.44,10.0,South,20.7,27.6,N/A,,Scattered Clouds,180,2013-01-12 00:55:00
7:15 PM,53.6,46.4,77,29.45,10.0,South,17.3,25.3,N/A,,Scattered Clouds,180,2013-01-12 01:15:00
7:35 PM,53.6,46.4,77,29.45,10.0,South,20.7,26.5,N/A,,Scattered Clouds,180,2013-01-12 01:35:00
7:55 PM,55.4,46.4,72,29.44,10.0,South,23.0,29.9,N/A,,Scattered Clouds,180,2013-01-12 01:55:00
8:15 PM,53.6,44.6,72,29.45,10.0,South,23.0,29.9,N/A,,Clear,180,2013-01-12 02:15:00
8:35 PM,55.4,44.6,67,29.45,10.0,South,21.9,27.6,N/A,,Clear,180,2013-01-12 02:35:00
8:55 PM,55.4,44.6,67,29.45,10.0,South,21.9,27.6,N/A,,Scattered Clouds,190,2013-01-12 02:55:00
9:15 PM,53.6,44.6,72,29.47,10.0,SSW,19.6,27.6,N/A,,Scattered Clouds,200,2013-01-12 03:15:00
9:35 PM,53.6,44.6,72,29.49,10.0,SSW,18.4,-,N/A,,Scattered Clouds,210,2013-01-12 03:35:00
9:55 PM,55.4,42.8,63,29.50,10.0,SSW,19.6,24.2,N/A,,Mostly Cloudy,210,2013-01-12 03:55:00
10:15 PM,53.6,41.0,62,29.53,7.0,West,18.4,27.6,N/A,,Mostly Cloudy,280,2013-01-12 04:15:00
10:35 PM,42.8,35.6,76,29.59,7.0,WNW,19.6,23.0,N/A,,Mostly Cloudy,300,2013-01-12 04:35:00
10:55 PM,39.2,33.8,81,29.63,7.0,WNW,21.9,26.5,N/A,,Overcast,290,2013-01-12 04:55:00
11:15 PM,37.4,32.0,81,29.65,10.0,WNW,20.7,31.1,N/A,,Overcast,290,2013-01-12 05:15:00
11:35 PM,37.4,30.2,75,29.67,7.0,WNW,20.7,31.1,N/A,,Overcast,290,2013-01-12 05:35:00
11:55 PM,37.4,30.2,75,29.68,10.0,West,18.4,-,N/A,,Overcast,280,2013-01-12 05:55:00